Home   Weather   Moscow   Past weeks

Flag for USA Past Weather in Moscow, Idaho, USA — Yesterday and Last 2 Weeks

Now
60 °F

Sunny.


Feels Like: 60 °F
Forecast: 49 / 74 °F
Wind: No wind

Location: Pullman / Moscow Regional Airport

Current Time: Sep 30, 2016 at 9:58:12 AM

Latest Report: Sep 30, 2016 at 8:53 AM


Visibility: 9 mi

Pressure: 29.98 "Hg (27.34 "Hg at 781m altitude)

Humidity: 58%

Dew Point: 45 °F

Location of MoscowLocation

Past Weather in Moscow — Graph

°F

Moscow Temperature Yesterday

Maximum temperature yesterday: 78 °F (at 2:53 PM)
Minimum temperature yesterday: 48 °F (at 2:53 AM)
Average temperature yesterday: 63 °F

High & Low Weather Summary for the Past Weeks

 TemperatureHumidityPressure
High86 °F (Sep 26, 3:53 PM)90% (Sep 24, 7:53 AM)30.48 "Hg (Sep 24, 7:53 AM)
Low36 °F (Sep 21, 6:53 AM)18% (Sep 15, 2:53 PM)29.86 "Hg (Sep 22, 12:53 AM)
Average59 °F54%30.07 "Hg
* Reported Sep 15 7:53 AM — Sep 30 7:53 AM, Moscow, Weather by CustomWeather, © 2016

Note: Actual official high and low records may vary slightly from our data, if they occured in-between our weather recording intervals... More about our weather records

Advertising

Moscow Weather History for the Previous 24 Hours

Scroll right to see more
 ConditionsComfort  
Time TempWeatherWind HumidityBarometerVisibility
7:53 AM
Fri, Sep 30
50 °FSunny.No wind86%30.00 "Hg9 mi
6:53 AM49 °FSunny.No wind86%30.01 "Hg9 mi
5:53 AM51 °FClear.No wind80%29.98 "Hg10 mi
4:53 AM54 °FPassing clouds.5 mph72%29.96 "Hg10 mi
3:53 AM52 °FPassing clouds.No wind83%29.99 "Hg10 mi
2:53 AM50 °FClear.No wind86%29.96 "Hg10 mi
1:53 AM56 °FClear.N/A72%29.95 "Hg10 mi
12:53 AM59 °FPassing clouds.12 mph67%29.96 "Hg10 mi
11:53 PM
Thu, Sep 29
58 °FClear.No wind60%29.96 "Hg10 mi
10:53 PM62 °FPassing clouds.6 mph52%29.96 "Hg10 mi
9:53 PM63 °FPassing clouds.6 mph60%29.92 "Hg10 mi
8:53 PM70 °FPassing clouds.9 mph44%29.93 "Hg10 mi
7:53 PM67 °FThundershowers. Passing clouds.10 mph42%30.00 "Hg8 mi
6:53 PM69 °FClear.No wind38%29.94 "Hg5 mi
5:53 PM72 °FSunny.6 mph33%29.93 "Hg8 mi
4:53 PM75 °FSunny.7 mph30%29.93 "Hg8 mi
3:53 PM77 °FSunny.6 mph29%29.94 "Hg9 mi
2:53 PM78 °FSunny.5 mph28%29.95 "Hg8 mi
1:53 PM75 °FSunny.3 mph31%29.96 "Hg8 mi
12:53 PM74 °FSunny.No wind32%29.98 "Hg8 mi
11:53 AM74 °FSunny.6 mph32%29.98 "Hg9 mi
10:53 AM70 °FSunny.6 mph37%29.98 "Hg8 mi
9:53 AM66 °FSunny.No wind45%29.98 "Hg6 mi
Weather by CustomWeather, © 2016

See weather overviewHow to use our weather pages